SL-8 R/B, 2802

Orbit data source: Space-Track

SL-8 R/B, 2802 is space debris in LEO originally from a launch on Mon, 15 May 1967 UTC launched from the Plesetsk Missile And Space Complex (PKMTR). Debris objects in space refer to the collection of defunct objects orbiting the Earth. Examples of debris include non-operational satellites, rocket bodies, and fragments generated from explosions, collisions, or faulty payload assembly.

Loading next visibility...
Identifier
2802, 1967-045B
Orbit
LEO
Country
Flag of CISCIS
Related business
Manufacturer
Yuzhnoe
Mission
Spacecraft
Bus & Motor
S3, Unknown motor
Mass
1,434 kg wet, 1,434 kg dry
Launch date (UTC)
1967-05-15 (59 years ago)
Launch vehicle
Unknown
Launch site
Plesetsk Missile And Space Complex (PKMTR)
Object type
Payload
Rocket body
Debris
Shape & HBR
Unknown
Radar Cross Section
Large (>1 m²)

Expand to show TLE details & history
Last TLE update: 12 hours ago

TLE from 12 hours ago
0 SL-8 R/B
1  2802U 67045B   26199.77913653  .00000116  00000-0  39709-4 0  9992
2  2802  74.0110 103.2556 0063074  78.9168 281.9074 14.45696461107968
Epoch: 2026-07-18T18:41Z
TLE epoch observation values (Epoch: 2026-07-18T18:41:57.396Z)
Latitude
-0.00001°
Longitude
-113.82055°
Altitude
733.368 km
Speed
7.493 km/s
True Right ascension
06h 53m 01s
True Declination
0° 00' 00"
Sunlit
Object was in daylight at epoch
Visualization orbit readout
Latitude
Unknown
Longitude
Unknown
Altitude
Unknown
Speed
Unknown
Apparent Right ascension
Unknown
Apparent Declination
Unknown
Sunlit
N/A
Visualization observer readout
Local Sidereal Time
19:00:11
Azimuth
Unknown
Elevation
Unknown
Doppler factor
Unknown
Orbital elements
Apogee altitude
782.235 km
Perigee altitude
692.474 km
Semi-major axis
7,115.491 km
Eccentricity
0.00631
Inclination
74.011°
RAAN
103.2556°
Arg. of periapsis
78.9168°
True anomaly
281.19904°
Mean anomaly
281.9074°
Eccentric anomaly
281.55333°
Mean motion
3.61606 °/min
Orbital period
99.56 mins
BSTAR
0.000039709
Loading maneuver chart data...
Computing Atmospheric mass density...
Loading historical data...
Loading historical data...
Loading historical data...
Loading historical data...
Loading historical data...
Loading historical data...
Loading historical data...
Other satellites on launch #45 in the year 1967 (1967-05-15 UTC)

Documentation

Showing up to 5 results
|